Погода в Приютово

Россия / Республика Башкортостан     53°53′42″N   53°56′12″E
темп.,
°C
ветер,
м/с
пор.,
м/с
влажн.,
%
обл.,
%
осадки,
мм/ч
давл.,
гПа
погр.,
м
29 ноября, пн
пн2923:00−4ю61584100 0.0 1022427
02:00−4ю51296100 0.2 1022353
05:00−4ю51196100 0.4 1022311
08:00−3ююз41097100 0.1 1022290
11:00−2ю4997100 0.1 1022253
14:00−1ююз4996100 0.0 1022282
17:00−1ю489498 0.1 1022249
20:00−2ююв4992100 0.0 1021191
30 ноября, вт
вт3023:00−1ю51386100 0.0 1021322
02:00−2ю61483100 0.0 1019325
05:00−2ююв7177992 0.0 1016338
08:00−4ююв71876100 0.0 1014345
11:00−3ююв92277100 0.0 1011467
14:00−2ю102378100 0.0 1009607
17:00−1ююв112390100 1.4 1005689
20:00+1ю102093100 1.3 1003805
1 декабря, ср
ср123:00+1ю81799100 1.7 1003530
02:00+1ю71699100 0.0 1003477
05:00+1ю714100100 0.1 1002434
08:00+1ююв61494100 0.1 1001392
11:00+1юв71593100 0.1 998400
14:00+1ююв81691100 0.0 996488
17:00+1ююв81594100 0.0 992463
20:00+1ю91898100 0.1 992665
2 декабря, чт
чт223:00+1ю716100100 1.1 991500
02:00+1ююз91498100 0.0 991690
05:00−2з91492100 0.1 997772
08:00−3зюз7119099 0.1 1001830
11:00−5юз5119795 0.1 1004445
14:00−4юз6129496 0.0 1005586
17:00−3юз71396100 0.4 1006776
20:00−3зюз81394100 0.8 1007874
3 декабря, пт
пт323:00−5зюз6139098 1.0 1010595
02:00−7юз5119593 0.0 1012304
05:00−5юз6129693 0.1 1013485
08:00−4ююз71492100 0.0 1013542
11:00−3ююз81796100 0.6 1013639
14:00−1юз8169599 0.4 1013681
17:00−1юз71597100 0.8 1015627
20:000юз71398100 0.1 1017541